Home   Weather   King Edward Point   Past weeks

Flag for South Georgia/Sandwich Is. Past Weather in King Edward Point, South Georgia/Sandwich Is. — Yesterday and Last 2 Weeks

Now
50 °F

Passing clouds.


Feels Like: 48 °F
Forecast: 36 / 39 °F
Wind: 6 mph from Northeast

Location: Mount Pleasant Airport

Current Time: Jan 23, 2017 at 7:01:29 am

Latest Report: Jan 23, 2017 at 5:50 am


Visibility: N/A

Pressure: 29.56 "Hg

Humidity: 71%

Dew Point: 41 °F

Location of King Edward PointLocation

Past Weather in King Edward Point — Graph

°F

King Edward Point Temperature Yesterday

Maximum temperature yesterday: 61 °F (at 12:50 pm)
Minimum temperature yesterday: 43 °F (at 12:50 am)
Average temperature yesterday: 54 °F

High & Low Weather Summary for the Past Weeks

 TemperatureHumidityPressure
High73 °F (Jan 20, 4:50 pm)100% (Jan 8, 7:50 pm)29.80 "Hg (Jan 8, 7:50 pm)
Low36 °F (Jan 11, 3:50 am)34% (Jan 16, 4:50 pm)28.97 "Hg (Jan 9, 2:50 pm)
Average51 °F75%29.41 "Hg
* Reported Jan 8 5:50 am — Jan 23 5:50 am, King Edward Point, Weather by CustomWeather, © 2017

Note: Actual official high and low records may vary slightly from our data, if they occured in-between our weather recording intervals... More about our weather records

Advertising

King Edward Point Weather History for the Previous 24 Hours

Scroll right to see more
 ConditionsComfort  
Time TempWeatherWind HumidityBarometerVisibility
5:50 am
Mon, Jan 23
50 °FPassing clouds.6 mph71%29.56 "HgN/A
4:50 am52 °FClear.10 mph62%29.59 "Hg10 mi
3:50 am50 °FClear.8 mph67%29.62 "Hg10 mi
2:50 am50 °FClear.14 mph67%29.65 "Hg10 mi
1:50 am50 °FClear.12 mph62%29.65 "Hg10 mi
12:50 am48 °FClear.12 mph71%29.68 "Hg10 mi
11:50 pm
Sun, Jan 22
50 °FClear.9 mph71%29.71 "Hg10 mi
10:50 pm50 °FSunny.10 mph71%29.71 "Hg10 mi
9:50 pm54 °FSunny.10 mph63%29.74 "Hg10 mi
8:50 pm57 °FSunny.18 mph55%29.74 "Hg10 mi
7:50 pm59 °FPartly sunny.20 mph51%29.74 "HgN/A
6:50 pm59 °FSunny.21 mph51%29.74 "Hg10 mi
5:50 pm61 °FPartly sunny.22 mph48%29.74 "HgN/A
4:50 pm61 °FPartly sunny.23 mph48%29.74 "HgN/A
3:50 pm61 °FBroken clouds.25 mph48%29.74 "HgN/A
2:50 pm61 °FPartly sunny.23 mph48%29.74 "HgN/A
1:50 pm61 °FBroken clouds.26 mph48%29.74 "HgN/A
12:50 pm61 °FPartly sunny.23 mph52%29.74 "HgN/A
11:50 am59 °FScattered clouds.24 mph63%29.74 "HgN/A
10:50 am57 °FBroken clouds.24 mph72%29.74 "HgN/A
9:50 am57 °FScattered clouds.25 mph67%29.74 "HgN/A
8:50 am55 °FScattered clouds.25 mph67%29.74 "HgN/A
7:50 am55 °FPartly sunny.20 mph59%29.74 "HgN/A
Weather by CustomWeather, © 2017

See weather overviewHow to use our weather pages